This demonstration page uses our WeatherBlox Daily Observations layout. Learn more.

Hourly Observations for October 10, 2017

Temp ( °F °C ) Dew Point ( °F °C ) Humidity (%) Winds ( mph kmh ) Pressure ( in mb ) Visibility ( mi km ) Precip ( " mm )
12:16 am 00:16 Cloudy with Nearby Thunderstorms 43 6.1 39 3.9 86 86 NNW 14 22 30.33 1027 10 16.0934 0 0
12:50 am 00:50 Cloudy with Heavy Thunderstorms 41 5 37 3 87 87 NNE 20 31 30.33 1027 2.5 4.02335 0.14 3.556
12:54 am 00:54 Cloudy with Heavy Thunderstorms 41 5 38 3.3 89 89 N 20 31 30.27 1025 2.5 4.02335 0.17 4.318
1:05 am 01:05 Cloudy with Nearby Thunderstorms 41 5 38 3.3 89 89 N 21 33 30.33 1027 4 6.43736 0.05 1.27
1:22 am 01:22 Cloudy with Rain 40 4.4 38 3.3 93 93 N 22 35 30.3 1026 6 9.65604 0.07 1.778
1:54 am 01:54 Cloudy with Heavy Rain 40 4.4 38 3.3 93 93 N 15 24 30.28 1025 4 6.43736 0.12 3.048
2:22 am 02:22 Cloudy with Rain 41 5 38 3.3 89 89 N 15 24 30.33 1027 5 8.0467 0.05 1.27
2:54 am 02:54 Cloudy with Light Rain 41 5 39 3.9 93 93 N 9 15 30.31 1027 7 11.26538 0.08 2.032
3:04 am 03:04 Cloudy with Light Rain 41 5 39 3.9 93 93 N 7 11 30.33 1027 7 11.26538 0 0.0254
3:32 am 03:32 Cloudy with Heavy Rain 41 5 39 3.9 93 93 N 18 30 30.33 1027 3 4.82802 0.06 1.524
3:54 am 03:54 Cloudy with Heavy Rain 40 4.4 38 3.3 93 93 N 22 35 30.27 1025 3 4.82802 0.16 4.064
4:54 am 04:54 Cloudy with Rain 41 5 38 3.3 89 89 N 14 22 30.3 1026 6 9.65604 0.05 1.27
5:06 am 05:06 Cloudy with Light Rain 41 5 38 3.3 89 89 N 16 26 30.33 1027 7 11.26538 0.01 0.254
5:54 am 05:54 Cloudy with Light Rain 41 5 38 3.3 89 89 N 17 28 30.28 1025 9 14.48406 0.01 0.254
6:54 am 06:54 Cloudy with Light Rain 41 5 38 3.3 89 89 N 13 20 30.29 1026 8 12.87472 0.02 0.508
7:54 am 07:54 Cloudy 41 5 39 3.9 93 93 N 13 20 30.31 1026 10 16.0934 0 0.0254
8:54 am 08:54 Cloudy 42 5.6 39 3.9 89 89 N 14 22 30.31 1027 10 16.0934 0 0
9:54 am 09:54 Cloudy 43 6.1 38 3.3 82 82 N 10 17 30.32 1027 10 16.0934 0 0
10:54 am 10:54 Cloudy 44 6.7 38 3.3 79 79 N 20 31 30.31 1026 10 16.0934 0 0
11:54 am 11:54 Cloudy 45 7.2 36 2.2 71 71 N 16 26 30.3 1026 10 16.0934 0 0
12:54 pm 12:54 Cloudy 46 7.8 36 2.2 68 68 N 16 26 30.31 1026 10 16.0934 0 0
1:54 pm 13:54 Cloudy 46 7.8 35 1.7 66 66 N 15 24 30.3 1026 10 16.0934 0 0
2:54 pm 14:54 Cloudy 48 8.9 35 1.7 61 61 N 16 26 30.28 1025 10 16.0934 0 0
3:54 pm 15:54 Cloudy 50 10 34 1.1 54 54 N 12 19 30.27 1025 10 16.0934 0 0
4:54 pm 16:54 Mostly Cloudy 53 11.7 35 1.7 51 51 N 14 22 30.25 1025 10 16.0934 0 0
5:54 pm 17:54 Sunny 51 10.6 33 0.6 50 50 N 12 19 30.26 1025 10 16.0934 0 0
6:54 pm 18:54 Sunny 48 8.9 34 1.1 58 58 NE 5 7 30.28 1025 10 16.0934 0 0
7:54 pm 19:54 Clear 42 5.6 36 2.2 79 79 NE 5 7 30.28 1025 10 16.0934 0 0
8:54 pm 20:54 Clear 44 6.7 35 1.7 71 71 NNW 3 6 30.28 1025 10 16.0934 0 0
9:54 pm 21:54 Clear 42 5.6 35 1.7 76 76 NNW 5 7 30.28 1026 10 16.0934 0 0
10:54 pm 22:54 Clear 40 4.4 34 1.1 79 79 NW 5 7 30.27 1025 10 16.0934 0 0
11:54 pm 23:54 Clear 37 2.8 33 0.6 86 86 Calm 30.26 1025 10 16.0934 0 0

Powered by AerisWeather